DECAYED

NOAA 16 DEB, 41662 (Decayed)

Orbit data source: Space-Track

NOAA 16 DEB, 41662 was space debris in SSO originally from a launch on Thu, 21 Sep 2000 UTC launched from the Air Force Western Test Range (AFWTR). Debris objects in space refer to the collection of defunct objects orbiting the Earth. Examples of debris include non-operational satellites, rocket bodies, and fragments generated from explosions, collisions, or faulty payload assembly.

Not visible in the next 10 days
Identifier
41662, 2000-055PB
Orbit
Decayed
Country
Flag of USUS
Related business
Manufacturer
Unknown
Mission
Decayed spacecraft
Bus & Motor
Unknown
Mass
Unknown
Launch date (UTC)
2000-09-21 (26 years ago)
Launch vehicle
Unknown
Launch site
Air Force Western Test Range (AFWTR)
Object type
Payload
Rocket body
Debris
Shape & HBR
Unknown shape, 0.1 m
Radar Cross Section
Medium (>0.1 m² and <1 m²)

Expand to show TLE details & history
Last TLE update: 9 months ago

TLE from 9 months ago
0 NOAA 16 DEB
1 41662U 00055PB  25265.73133201  .00411292  00000-0  22272-1 0  9994
2 41662  98.8417  78.1834 0006212 253.6079 106.4465 15.12578439490837
Epoch: 2025-09-22T17:33Z
TLE epoch observation values (Epoch: 2025-09-22T17:33:07.085Z)
Latitude
-0.00004°
Longitude
173.07258°
Altitude
532.593 km
Speed
7.596 km/s
True Right ascension
05h 12m 44s
True Declination
0° 00' 00"
Sunlit
Object was in daylight at epoch
Visualization orbit readout
Latitude
Unknown
Longitude
Unknown
Altitude
Unknown
Speed
Unknown
Apparent Right ascension
Unknown
Apparent Declination
Unknown
Sunlit
N/A
Visualization observer readout
Local Sidereal Time
21:48:31
Azimuth
Unknown
Elevation
Unknown
Doppler factor
Unknown
Orbital elements
Apogee altitude
529.671 km
Perigee altitude
521.094 km
Semi-major axis
6,903.52 km
Eccentricity
0.00062
Inclination
98.8417°
RAAN
78.1834°
Arg. of periapsis
253.6079°
True anomaly
106.51476°
Mean anomaly
106.4465°
Eccentric anomaly
106.48063°
Mean motion
3.78388 °/min
Orbital period
95.14 mins
BSTAR
0.022272
Loading maneuver chart data...
Computing Atmospheric mass density...
Loading historical data...
Loading historical data...
Loading historical data...
Loading historical data...
Loading historical data...
Loading historical data...
Loading historical data...

Documentation

Showing up to 5 results
|